Theta_e
317 318 320 324 326 327 325 323 323 327 328 327 331 328 328 326 327 338 336 334 336 338 341 339 334 333 332 331 336 337 334 333 331 331 332 333 330 331 332 328 328 330 330 331 330 332 332 332 330
317 318 322 325 327 326 323 322 323 325 326 329 329 326 326 331 334 336 338 335 336 339 340 338 332 330 331 330 334 336 334 331 331 331 332 333 330 331 331 327 329 329 329 329 329 329 329 330 329
317 317 325 325 326 326 323 321 324 324 325 326 328 328 326 330 333 336 337 335 337 339 339 337 331 328 331 331 330 336 334 332 331 331 331 331 328 329 328 326 328 329 329 329 328 328 329 329 328
318 320 323 325 325 325 322 321 322 324 322 323 325 326 327 329 334 339 336 337 338 340 339 333 329 329 330 331 327 335 334 331 330 330 330 330 328 327 328 327 327 331 330 332 330 329 329 327 323
319 322 324 324 326 322 320 321 322 323 322 322 323 324 327 331 337 339 337 337 338 339 339 335 329 328 328 329 331 336 334 331 329 329 330 328 326 327 329 327 326 327 328 329 329 328 325 322 321
320 321 324 325 323 320 320 320 322 322 320 321 322 321 329 335 338 338 338 338 339 338 337 336 330 328 327 328 332 333 333 331 329 327 327 327 326 325 327 326 325 324 328 328 327 323 321 321 320
322 321 324 324 323 321 320 320 321 320 319 319 322 320 329 334 339 338 338 338 338 338 337 336 335 331 327 329 330 332 331 331 329 325 325 327 326 323 326 326 324 323 325 325 325 322 321 321 320
320 322 324 323 322 322 320 320 320 319 318 320 322 321 324 332 338 339 338 338 338 338 337 336 335 334 332 328 330 330 331 330 328 324 323 324 325 323 325 324 323 324 324 323 323 322 321 320 319
318 321 323 322 321 321 320 320 318 317 319 320 322 320 326 335 338 339 339 338 338 338 337 336 335 334 333 331 331 330 329 329 326 322 320 322 325 324 325 324 323 323 323 323 323 323 321 319 318
319 322 323 322 321 321 320 319 318 317 318 318 322 323 329 337 337 336 338 338 337 336 337 336 335 335 334 332 331 331 330 329 328 326 321 324 325 325 324 323 322 322 322 322 321 320 319 320 320
319 321 317 317 317 319 320 319 319 319 319 318 319 322 330 336 337 336 336 336 335 335 336 336 336 335 334 332 331 331 330 330 330 327 324 323 324 325 323 322 321 320 320 319 319 318 320 320 320
317 317 316 316 315 317 319 319 318 319 320 318 319 321 329 334 336 336 336 338 336 335 335 335 335 335 334 333 332 332 331 330 330 328 325 323 324 324 324 323 322 321 320 320 319 319 319 319 319
316 315 313 314 314 316 317 318 319 318 319 316 316 321 329 331 332 333 333 334 336 335 335 334 334 334 334 333 333 332 331 330 329 328 325 323 323 324 324 324 323 321 319 318 319 318 318 318 317
314 314 314 313 313 313 317 316 314 318 318 316 315 318 323 327 329 331 332 333 334 335 335 334 334 334 333 333 333 332 331 330 329 328 325 322 323 324 324 323 322 320 318 318 318 318 318 317 316
313 314 314 313 313 313 313 314 314 316 313 314 313 315 317 321 325 328 331 332 333 334 335 335 335 333 333 333 333 333 331 330 329 327 326 323 322 323 323 322 321 319 317 317 317 316 316 316 315
313 314 314 314 313 314 314 315 316 315 313 314 315 315 315 317 321 325 328 331 332 333 333 334 335 333 333 333 332 332 332 331 329 327 326 323 322 323 323 322 320 318 316 315 315 314 314 314 314
314 314 314 313 313 314 314 314 315 312 312 313 314 314 314 314 315 320 325 329 331 332 332 333 335 334 333 332 332 332 332 331 330 328 326 324 322 321 322 321 320 318 315 314 314 314 315 314 313
314 314 314 314 312 312 314 314 314 313 313 314 315 315 315 314 313 314 318 325 329 332 333 333 334 335 334 332 332 331 330 330 331 329 327 326 323 321 320 320 320 318 316 314 313 312 312 312 313
314 314 313 313 311 313 313 314 314 314 314 314 314 315 315 315 315 313 312 317 325 329 331 333 334 335 335 333 332 331 331 330 330 330 329 327 325 323 321 319 319 318 317 315 313 311 311 310 311
312 313 312 311 312 313 313 314 313 313 314 314 314 314 315 315 316 315 314 312 316 324 327 330 332 334 335 333 331 332 332 330 330 329 329 329 327 325 323 321 321 319 317 315 313 312 310 310 310
312 312 312 311 312 311 311 312 313 313 312 313 313 314 314 315 315 316 314 313 312 312 316 324 327 331 334 334 332 331 332 330 330 330 330 329 328 326 324 322 321 320 318 316 313 313 311 310 309
311 311 311 311 311 311 312 311 314 313 312 311 311 312 313 313 313 313 312 311 311 311 311 311 317 324 329 334 332 332 330 329 330 329 329 329 329 328 327 325 322 321 321 318 317 315 312 310 307
311 312 311 312 313 313 312 312 311 312 312 312 313 313 313 312 312 313 313 311 311 309 308 308 309 314 322 328 333 330 331 330 329 328 329 328 328 328 327 326 326 324 322 322 320 317 314 311 307
310 312 312 312 311 312 311 312 312 313 312 312 312 311 311 311 312 311 311 311 313 315 315 310 307 308 315 322 329 330 329 328 329 329 329 328 328 327 327 327 326 326 325 323 321 318 315 312 310
311 312 312 312 312 311 311 312 312 313 312 311 311 311 311 313 313 312 312 313 314 318 317 316 309 307 311 317 324 328 327 327 327 328 328 328 327 326 326 326 327 326 325 322 320 318 316 314 311
312 311 314 318 314 312 309 311 311 313 312 309 309 309 312 313 312 312 311 311 312 315 316 318 317 312 312 317 321 324 325 326 326 327 327 327 327 327 327 326 325 324 322 320 319 317 315 313 311
311 312 312 312 310 314 313 312 312 313 311 310 310 310 313 313 312 312 311 310 311 312 315 316 317 317 318 318 320 323 323 324 325 326 326 326 326 326 325 324 323 321 319 318 317 315 315 313 312
311 311 310 312 324 315 310 312 312 313 311 312 311 311 312 312 311 311 310 309 309 310 312 315 315 316 315 316 317 319 319 320 322 324 324 324 324 323 322 321 320 318 317 315 313 313 311 310 309
310 311 310 310 311 314 312 310 311 312 313 312 312 314 314 312 312 310 309 308 308 308 310 312 314 314 315 316 316 317 318 319 321 322 321 321 320 319 318 317 315 313 311 310 309 309 307 306 306
311 310 311 312 312 311 313 314 310 311 311 312 314 314 313 312 311 309 308 308 308 308 308 309 310 312 312 314 315 316 317 317 317 317 317 317 316 314 311 309 307 306 306 306 305 304 304 304 304
Wind_Speed
6 7 6 6 6 5 4 5 5 7 8 4 7 2 7 7 7 4 12 11 18 18 15 12 13 13 16 13 15 15 13 15 15 15 15 16 15 17 18 18 19 19 18 16 15 16 17 17 17
4 4 4 4 6 6 7 8 8 8 10 7 6 3 2 7 8 9 14 13 18 17 16 13 13 13 16 14 15 14 12 15 15 15 15 16 15 14 16 17 17 18 18 17 16 17 17 17 18
2 2 5 4 7 5 6 8 11 8 9 7 5 1 3 5 6 13 13 21 19 16 15 13 13 15 16 14 15 14 14 12 15 15 14 15 15 15 14 14 16 17 17 17 18 19 19 20 20
5 5 4 8 8 4 5 9 12 11 4 2 1 6 5 4 7 6 18 20 19 17 14 15 14 14 16 14 16 14 14 11 14 14 14 14 15 14 12 15 15 17 17 18 18 19 19 19 20
5 3 8 10 4 4 2 8 10 10 9 9 5 5 3 6 7 14 21 20 19 17 15 15 15 14 15 15 17 15 13 10 11 13 14 14 14 14 15 14 14 14 14 15 16 17 16 16 17
5 4 7 10 7 4 4 6 8 7 5 6 5 4 6 8 12 17 20 19 17 16 16 14 15 14 15 15 16 14 12 10 10 12 13 14 11 13 14 11 12 12 14 14 14 13 13 14 14
4 7 11 8 8 6 6 7 8 7 7 5 3 3 5 10 13 17 19 18 16 16 16 15 13 14 14 16 14 13 10 9 9 11 13 14 11 12 13 10 9 11 11 10 11 11 11 11 11
3 4 5 8 11 6 9 10 2 5 6 4 0 3 6 12 15 16 17 17 16 17 16 15 15 14 13 15 14 15 12 9 8 9 12 14 12 11 14 10 9 11 10 8 7 9 10 10 11
2 6 10 9 10 9 12 9 4 2 6 4 6 3 4 18 16 16 17 16 16 15 17 16 16 15 13 13 14 13 13 10 8 9 11 13 10 10 11 10 11 10 9 9 9 9 9 8 8
6 8 11 7 6 11 14 8 10 6 7 7 8 7 9 16 16 17 17 18 15 18 17 18 17 16 15 13 13 11 10 10 8 9 12 8 10 9 10 11 10 10 9 8 8 9 9 7 5
5 9 6 5 7 5 12 8 8 7 7 6 10 13 14 16 16 17 18 19 17 19 18 18 17 17 17 14 15 13 11 11 10 10 10 9 10 11 11 11 11 10 7 5 7 6 3 4 3
3 1 4 5 5 6 10 7 8 10 5 4 5 12 16 15 19 20 20 20 19 19 20 19 20 20 19 16 15 14 14 13 12 12 12 11 9 11 10 9 9 9 7 7 6 4 4 4 4
8 5 1 7 6 3 6 8 5 9 6 5 4 8 13 14 18 18 18 19 19 20 21 23 22 24 22 18 17 15 15 15 13 13 13 12 11 12 11 10 9 8 8 8 7 6 6 5 5
5 8 7 4 6 4 6 4 2 10 7 9 7 9 11 14 18 17 19 20 21 21 22 22 25 23 23 23 18 17 15 15 15 15 15 15 12 12 12 11 10 9 8 8 8 7 6 6 6
7 6 6 7 6 3 3 5 10 5 6 10 10 11 11 13 17 20 20 21 22 22 21 23 23 25 24 25 20 18 17 16 16 16 16 17 15 14 13 13 12 11 10 10 9 9 9 9 8
7 7 8 9 8 4 6 12 14 10 8 11 12 11 11 13 17 19 21 21 21 22 23 22 23 25 25 26 28 21 19 17 17 16 19 19 19 16 15 14 13 13 13 13 12 13 12 11 11
7 8 12 5 8 4 10 9 7 6 8 10 10 11 12 12 16 19 20 22 22 23 23 24 24 22 26 26 24 27 20 20 17 16 16 20 23 22 21 18 16 17 16 15 15 14 13 12 11
11 11 9 10 6 6 9 12 5 6 9 11 10 11 11 12 16 18 20 21 22 22 23 24 25 25 24 25 26 24 26 23 19 19 19 18 22 25 25 25 23 24 20 20 18 17 15 10 9
9 11 11 6 2 7 12 12 14 13 13 13 13 12 13 12 12 16 18 20 21 22 24 26 27 27 26 28 27 27 27 31 29 22 20 20 21 22 25 25 27 28 27 23 20 19 19 17 12
6 10 9 5 4 2 6 12 14 14 15 15 16 16 16 15 13 13 13 16 21 24 25 26 28 28 29 27 29 28 26 28 33 30 29 21 22 22 24 27 29 29 29 26 25 25 20 16 16
11 11 7 6 5 4 6 15 15 14 15 16 17 17 16 14 13 10 14 15 16 20 23 26 28 29 29 29 25 25 21 25 27 29 32 34 28 25 27 32 29 30 29 28 28 27 29 23 23
14 11 9 5 3 6 1 7 5 8 12 11 14 15 16 15 10 9 8 10 14 14 15 20 23 27 29 28 29 28 27 26 26 28 31 33 33 33 34 33 30 31 31 31 32 30 32 27 21
7 5 9 6 7 7 9 7 9 3 9 14 14 13 10 7 5 5 4 5 7 8 13 17 20 23 26 29 29 30 29 26 25 25 26 29 31 31 30 30 30 31 33 33 34 34 33 35 25
13 10 7 4 5 7 13 9 9 12 11 10 3 8 7 5 4 2 2 0 3 3 6 10 13 17 22 24 28 29 27 28 23 23 24 26 28 29 31 29 29 30 31 34 34 33 32 33 33
12 13 5 5 5 6 3 6 16 4 6 3 4 8 8 6 6 4 3 2 2 2 2 4 8 12 16 20 23 26 27 24 27 25 21 21 23 24 24 26 26 29 30 31 31 29 30 30 30
20 19 8 7 6 5 3 9 6 7 2 1 5 4 2 6 6 6 4 3 2 1 1 1 2 6 10 14 18 19 22 23 23 23 21 22 22 23 22 22 23 24 24 24 25 26 25 25 25
15 14 12 3 2 1 7 9 12 11 9 10 10 7 6 5 6 6 6 4 2 2 2 2 2 1 3 7 11 12 16 21 20 19 18 18 17 17 16 15 15 16 17 19 19 21 21 22 22
10 11 5 5 6 6 10 13 12 4 13 11 11 11 8 6 5 5 4 4 2 2 3 3 3 3 3 5 7 11 13 14 13 13 14 14 13 12 11 10 11 11 12 14 16 16 18 19 19
7 12 10 8 10 8 7 10 7 11 12 13 10 6 7 6 6 5 4 4 3 2 3 3 4 3 3 5 7 9 9 10 11 11 10 9 9 9 8 10 11 11 11 12 14 14 15 17 17
17 21 22 9 11 8 7 12 5 3 1 4 8 8 7 7 6 5 6 6 5 4 4 4 5 6 4 5 6 8 9 9 9 9 8 8 8 8 8 7 7 8 10 10 11 11 12 14 16
Wind_Direction
331 313 307 272 247 246 133 137 106 129 138 73 101 17 37 8 6 39 144 134 144 138 145 139 141 139 133 126 116 118 104 98 95 91 93 84 84 81 83 82 77 79 79 80 87 85 85 83 90
306 309 249 273 257 211 143 126 165 143 104 131 122 129 162 80 67 116 146 147 149 141 143 143 146 139 136 130 127 118 104 100 99 94 94 87 87 86 83 80 84 81 81 84 85 88 88 88 87
280 249 243 232 254 239 138 159 126 112 138 154 149 300 33 69 78 140 135 147 149 144 141 156 146 139 138 133 136 122 118 102 104 100 101 94 88 91 84 80 86 88 87 87 86 87 89 89 89
221 190 235 245 201 58 35 156 128 142 136 191 19 130 108 61 130 133 146 148 149 146 146 150 148 144 144 136 138 133 132 110 110 107 109 105 101 101 98 96 95 91 88 91 93 93 91 90 89
215 224 212 233 160 100 112 124 155 168 156 163 181 116 89 122 120 142 149 152 151 150 147 150 154 151 150 142 139 135 139 126 116 116 118 116 114 119 93 97 95 91 94 93 94 95 96 94 91
201 249 206 207 177 130 122 158 175 176 150 123 193 137 100 128 140 151 156 157 156 152 151 158 159 156 153 151 147 140 146 138 125 123 125 127 124 124 110 107 108 102 101 106 100 104 102 101 94
249 211 207 201 153 159 148 166 186 178 164 172 42 194 93 153 148 155 163 163 163 157 158 159 160 161 158 156 152 149 148 149 138 134 133 135 137 121 110 111 121 107 112 118 104 110 109 108 100
252 253 178 197 175 143 148 168 208 190 141 95 292 172 150 154 156 159 166 167 171 166 167 166 165 162 159 162 159 157 163 162 151 145 142 142 138 130 129 115 107 115 114 110 116 123 115 113 105
289 223 193 183 181 144 154 172 169 71 147 183 160 31 61 139 151 160 172 167 169 180 176 174 171 171 169 165 168 168 171 168 157 152 148 129 134 126 111 140 119 124 120 124 119 114 111 105 96
223 225 191 158 159 159 166 194 164 183 165 181 169 121 138 149 158 168 181 180 170 188 183 180 178 177 174 171 172 167 170 167 161 159 154 151 149 146 144 139 141 143 141 142 129 115 106 84 84
181 217 125 148 120 153 162 183 175 207 194 189 194 167 162 163 177 183 189 195 192 191 188 189 183 182 178 179 175 176 180 179 181 178 174 170 164 162 149 151 156 152 150 121 122 116 110 124 116
174 252 156 146 137 137 169 184 196 216 85 40 132 150 169 178 191 194 197 199 196 196 194 193 193 185 186 185 186 185 186 187 187 188 183 176 172 169 170 166 166 162 163 167 155 157 150 138 130
231 140 155 132 141 155 140 187 216 212 165 121 128 164 179 193 198 201 205 207 201 204 200 198 198 201 193 191 192 195 194 192 191 189 190 184 183 182 181 180 177 175 175 169 171 170 165 165 157
142 176 138 146 143 134 184 173 251 214 172 196 196 196 200 203 204 203 206 206 206 207 205 201 204 203 204 199 199 199 201 199 194 192 195 191 192 188 185 184 185 186 181 181 180 182 180 181 187
161 144 165 172 174 135 201 206 224 202 168 201 215 231 221 214 211 210 209 212 208 210 206 204 204 205 206 210 206 206 206 203 203 199 198 196 194 194 189 188 189 190 188 188 187 189 192 197 200
180 204 193 166 181 151 203 236 214 208 209 229 230 222 221 223 224 217 215 213 213 209 210 206 203 204 206 211 213 209 208 206 208 207 201 205 202 198 195 195 198 197 197 197 201 207 210 210 210
205 211 215 167 209 158 209 246 206 165 224 235 240 239 233 231 226 222 218 215 214 211 208 209 208 206 209 209 212 216 208 209 212 209 209 211 214 206 206 204 204 208 208 206 208 213 213 216 218
197 219 206 208 182 219 208 244 206 195 230 234 237 236 235 233 232 223 220 216 215 216 214 212 212 213 209 210 212 215 218 213 212 214 213 212 213 217 214 214 214 217 216 214 214 213 217 221 222
242 214 206 201 131 220 229 245 253 247 221 250 247 244 246 241 235 223 218 215 214 216 215 217 214 215 210 210 206 208 208 220 219 211 216 214 213 217 219 225 227 226 229 230 229 231 228 229 219
194 214 214 123 150 244 251 258 259 256 247 241 247 245 237 241 237 210 207 207 211 214 217 219 220 217 215 214 214 214 212 220 224 224 224 216 217 217 221 224 230 231 230 233 232 232 228 227 213
223 228 209 274 161 225 282 268 242 242 245 239 238 251 257 245 231 221 197 212 213 217 219 219 222 222 219 216 216 218 217 216 224 222 232 235 223 221 225 230 233 237 236 234 238 237 229 227 222
220 224 245 182 232 259 256 279 206 214 232 225 238 240 245 243 238 248 244 230 235 234 228 226 226 226 222 215 208 210 211 219 222 225 226 231 237 230 240 243 240 240 247 244 246 245 242 227 223
221 163 211 216 242 301 223 270 256 113 254 248 233 232 221 243 229 213 216 243 251 242 237 235 228 227 222 218 212 217 218 225 229 230 229 233 237 235 237 243 247 245 244 251 252 251 245 244 230
132 125 132 179 232 251 243 227 254 236 226 245 204 179 165 174 178 164 137 223 241 237 248 235 227 227 222 219 220 218 220 224 220 217 215 223 234 241 242 252 252 255 256 256 257 254 254 250 247
178 170 182 218 207 245 17 215 253 259 219 230 216 173 166 163 164 143 135 113 47 34 269 229 220 223 219 219 221 223 227 227 227 225 217 211 227 236 245 249 252 254 258 258 257 258 260 257 256
194 189 190 199 208 212 135 232 245 236 283 183 201 220 240 177 164 160 137 106 78 56 15 59 187 216 212 215 220 222 226 231 230 226 220 229 239 245 248 249 250 255 259 262 261 262 262 261 260
199 221 237 100 53 233 210 248 274 226 231 222 216 209 228 199 181 164 151 148 136 89 74 68 75 110 174 205 215 217 218 226 230 224 228 235 238 241 245 249 252 248 248 250 253 253 257 258 262
209 174 177 217 192 231 242 238 249 182 223 215 218 218 221 186 180 176 165 146 133 103 79 106 105 125 164 188 197 209 219 223 222 214 213 220 226 232 234 231 236 237 239 242 245 254 262 264 267
180 195 219 223 226 221 248 246 288 247 213 223 208 179 186 184 185 175 163 160 160 137 115 112 117 132 147 162 177 186 197 203 199 193 196 196 200 207 221 233 239 242 239 243 245 249 255 260 263
232 215 205 204 213 237 265 255 111 85 149 231 178 171 159 165 169 167 173 170 157 147 137 121 115 116 123 142 145 147 151 154 152 155 172 190 198 207 216 229 240 253 253 251 250 250 253 259 265